EW0814 Weather Reports


Display with metric or nautical units.
time (UTC)temp
F
wind
direction
speed
MPH
gust
MPH
rain 1hr
in
rain 24hr
in
rain mn
in
humidity
%
barometer
mb
20200219202007 22 341 6.0 18.0 0.00 0.00 0.00 44 1018.3
20200219201007 22 320 6.0 13.0 0.00 0.00 0.00 46 1018.0
20200219200007 22 335 6.0 12.0 0.00 0.00 0.00 43 1018.3
20200219195007 22 20 2.0 13.0 0.00 0.00 0.00 47 1017.9
20200219194007 22 355 4.0 14.0 0.00 0.00 0.00 48 1017.7
20200219193011 23 325 7.0 14.0 0.00 0.00 0.00 45 1017.6
20200219192008 24 335 5.0 13.0 0.00 0.00 0.00 47 1017.6
20200219191008 24 262 6.0 13.0 0.00 0.00 0.00 46 1017.4
20200219190006 25 282 4.0 13.0 0.00 0.00 0.00 46 1017.4
20200219185008 26 240 5.0 18.0 0.00 0.00 0.00 47 1017.2
20200219184005 26 244 6.0 15.0 0.00 0.00 0.00 51 1017.2
20200219183005 26 352 6.0 18.0 0.00 0.00 0.00 49 1017.3
20200219182005 25 291 6.0 23.0 0.00 0.00 0.00 50 1017.2
20200219181005 25 329 5.0 13.0 0.00 0.00 0.00 47 1017.0
20200219180005 26 281 4.0 15.0 0.00 0.00 0.00 48 1016.8
20200219175005 25 324 4.0 13.0 0.00 0.00 0.00 52 1016.6
20200219174005 25 338 7.0 21.0 0.00 0.00 0.00 55 1016.6
20200219173005 25 325 7.0 15.0 0.00 0.00 0.00 61 1016.6
20200219172005 27 316 10.0 21.0 0.00 0.00 0.00 68 1016.5
20200219171004 28 350 6.0 17.0 0.00 0.00 0.00 57 1016.3
20200219170004 28 319 6.0 25.0 0.00 0.00 0.00 53 1016.1
20200219165004 27 27 6.0 15.0 0.00 0.00 0.00 55 1015.8
20200219164004 26 8 6.0 14.0 0.00 0.00 0.00 54 1016.0
20200219163005 28 142 4.0 21.0 0.00 0.01 0.00 50 1016.1
20200219162005 29 320 5.0 15.0 0.00 0.01 0.00 45 1015.7
20200219161005 29 7 7.0 25.0 0.00 0.01 0.00 48 1015.2
20200219160004 29 41 3.0 14.0 0.00 0.01 0.00 48 1015.2
20200219155005 29 65 4.0 12.0 0.00 0.01 0.00 48 1014.9
20200219154004 26 12 8.0 17.0 0.00 0.01 0.00 46 1015.1
20200219153005 26 342 4.0 15.0 0.00 0.01 0.00 54 1014.8
20200219152004 27 338 5.0 20.0 0.00 0.01 0.00 55 1014.6
20200219151005 28 283 4.0 12.0 0.00 0.01 0.00 59 1014.5
20200219150005 27 351 5.0 14.0 0.00 0.01 0.00 62 1014.3
20200219145004 27 308 4.0 15.0 0.00 0.01 0.00 64 1014.2
20200219144005 27 286 5.0 15.0 0.00 0.01 0.00 66 1014.1
20200219143004 27 330 3.0 8.0 0.00 0.01 0.00 72 1014.1
20200219142004 26 312 6.0 15.0 0.00 0.01 0.00 76 1013.9
20200219141006 27 326 3.0 12.0 0.00 0.01 0.00 78 1014.0
20200219140004 27 355 6.0 15.0 0.00 0.01 0.00 76 1013.7
20200219135004 29 346 8.0 17.0 0.00 0.01 0.00 69 1013.5
20200219134005 29 3 4.0 14.0 0.00 0.01 0.00 67 1013.3
20200219133005 29 353 3.0 9.0 0.00 0.01 0.00 72 1013.0
20200219132005 28 6 2.0 8.0 0.00 0.01 0.00 72 1012.9
20200219131005 28 316 5.0 12.0 0.00 0.01 0.00 71 1012.8
20200219130005 28 44 3.0 9.0 0.00 0.01 0.00 71 1012.8
20200219125010 28 55 4.0 10.0 0.00 0.01 0.00 68 1012.5
20200219124004 28 177 4.0 10.0 0.00 0.01 0.00 67 1012.5
20200219123006 27 55 3.0 12.0 0.00 0.01 0.00 69 1012.3
20200219122004 27 14 3.0 10.0 0.00 0.01 0.00 72 1012.2
20200219121005 26 30 4.0 8.0 0.00 0.01 0.00 76 1012.0
20200219120004 27 111 2.0 7.0 0.00 0.01 0.00 76 1012.0
20200219115006 28 331 5.0 8.0 0.00 0.01 0.00 76 1011.9
20200219114004 28 73 5.0 8.0 0.00 0.01 0.00 75 1011.7
20200219113005 28 47 3.0 14.0 0.00 0.01 0.00 73 1011.6
20200219112005 28 90 4.0 8.0 0.00 0.01 0.00 75 1011.6
20200219111005 27 49 2.0 12.0 0.00 0.01 0.00 76 1011.6
20200219110005 26 57 3.0 8.0 0.00 0.01 0.00 77 1011.7
20200219105005 27 57 5.0 8.0 0.00 0.01 0.00 77 1011.6
20200219104005 28 92 3.0 8.0 0.00 0.01 0.00 77 1011.7
20200219103005 28 64 2.0 7.0 0.00 0.01 0.00 77 1011.8
20200219102004 28 71 3.0 6.0 0.00 0.01 0.00 78 1011.7
20200219101005 29 21 3.0 7.0 0.00 0.01 0.00 77 1011.6
20200219100004 29 38 2.0 8.0 0.00 0.01 0.00 77 1011.7
20200219095004 29 21 2.0 8.0 0.00 0.01 0.00 77 1011.5
20200219094005 29 347 3.0 8.0 0.00 0.01 0.00 78 1011.5
20200219093005 29 299 6.0 12.0 0.00 0.01 0.00 80 1011.3
20200219092005 30 71 5.0 9.0 0.00 0.01 0.00 81 1011.4
20200219091005 29 20 2.0 12.0 0.00 0.01 0.00 82 1011.3
20200219090004 29 87 3.0 10.0 0.00 0.01 0.00 84 1011.2
20200219085005 30 114 6.0 9.0 0.00 0.01 0.00 86 1011.2
20200219084006 29 13 5.0 8.0 0.00 0.01 0.00 85 1011.1
20200219083005 30 79 5.0 7.0 0.00 0.01 0.00 87 1011.0
20200219082005 30 57 3.0 10.0 0.00 0.01 0.00 86 1011.0
20200219081005 30 356 5.0 9.0 0.00 0.01 0.00 87 1011.0
20200219080005 30 239 2.0 6.0 0.00 0.01 0.00 87 1011.0
20200219075004 30 11 3.0 6.0 0.00 0.01 0.00 89 1010.8
20200219074005 30 41 3.0 6.0 0.00 0.01 0.00 91 1010.6
20200219073005 30 10 2.0 7.0 0.00 0.01 0.00 94 1010.6
20200219072004 29 76 3.0 7.0 0.00 0.01 0.00 96 1010.5
20200219071005 29 71 2.0 3.0 0.00 0.01 0.00 98 1010.4
20200219070005 29 72 2.0 5.0 0.00 0.01 0.00 98 1010.3
20200219065004 29 228 2.0 6.0 0.00 0.01 0.00 98 1010.3
20200219064005 29 84 3.0 6.0 0.00 0.01 0.00 96 1010.2
20200219063004 29 234 1.0 5.0 0.00 0.01 0.00 98 1010.1
20200219062005 29 292 3.0 8.0 0.00 0.01 0.00 98 1010.0
20200219061004 29 88 3.0 7.0 0.00 0.01 0.00 98 1009.8
20200219060005 29 57 3.0 6.0 0.00 0.01 0.00 98 1009.9
20200219055004 29 274 2.0 5.0 0.00 0.01 0.00 98 1009.9
20200219054004 29 55 1.0 5.0 0.00 0.01 0.00 98 1010.1
20200219053005 29 67 0.0 2.0 0.00 0.01 0.00 98 1010.1
20200219052005 29 71 1.0 2.0 0.00 0.01 0.00 98 1010.0
20200219051005 29 66 1.0 5.0 0.00 0.01 0.00 98 1010.0
20200219050005 30 77 1.0 5.0 0.00 0.01 0.00 98 1009.9
20200219045005 30 75 3.0 8.0 0.00 0.01 0.01 98 1009.9
20200219044004 30 81 2.0 7.0 0.00 0.01 0.01 98 1009.9
20200219043005 30 69 2.0 6.0 0.00 0.01 0.01 98 1009.9
20200219042005 30 103 3.0 5.0 0.00 0.01 0.01 99 1009.9
20200219041005 30 96 2.0 5.0 0.00 0.01 0.01 98 1010.0
20200219040005 29 137 2.0 3.0 0.00 0.01 0.01 98 1010.0
20200219035004 29 305 1.0 3.0 0.00 0.01 0.01 98 1010.2
20200219034005 29 86 0.0 3.0 0.00 0.01 0.01 98 1010.3
20200219033005 28 247 1.0 5.0 0.00 0.01 0.01 98 1010.6
20200219032004 28 118 1.0 3.0 0.00 0.01 0.01 98 1010.7
20200219031005 28 98 1.0 3.0 0.00 0.01 0.01 98 1010.3
20200219030004 28 90 2.0 3.0 0.00 0.01 0.01 98 1010.9
20200219025005 28 120 1.0 3.0 0.00 0.01 0.01 96 1011.1
20200219024005 28 121 1.0 2.0 0.00 0.01 0.01 96 1011.3
20200219023005 28 97 1.0 3.0 0.00 0.01 0.01 96 1011.4
20200219022004 28 73 2.0 3.0 0.00 0.01 0.01 96 1011.5
20200219021004 28 55 2.0 3.0 0.00 0.01 0.01 96 1011.8
20200219020004 28 62 0.0 3.0 0.00 0.01 0.01 96 1011.8
20200219015005 28 125 2.0 3.0 0.00 0.01 0.01 96 1011.9
20200219014005 28 95 0.0 1.0 0.00 0.01 0.01 96 1012.1
20200219013005 28 74 0.0 2.0 0.00 0.01 0.01 96 1012.1
20200219012005 28 263 0.0 1.0 0.00 0.01 0.01 96 1012.4
20200219011004 28 90 1.0 2.0 0.00 0.01 0.01 96 1012.5
20200219010004 28 82 1.0 2.0 0.00 0.01 0.01 96 1012.7
20200219005004 28 100 0.0 2.0 0.00 0.01 0.01 96 1012.8
20200219004004 28 117 1.0 2.0 0.00 0.01 0.01 96 1012.8
20200219003006 28 112 0.0 2.0 0.00 0.01 0.01 96 1013.2
20200219002005 28 26 1.0 2.0 0.00 0.01 0.01 95 1013.3
20200219001005 28 69 1.0 2.0 0.00 0.01 0.01 95 1013.4
20200219000005 28 144 1.0 2.0 0.00 0.01 0.01 95 1013.7
20200218235005 28 125 1.0 2.0 0.00 0.01 0.01 95 1014.0
20200218234004 28 93 1.0 2.0 0.00 0.01 0.01 95 1014.2
20200218233005 28 162 0.0 2.0 0.00 0.01 0.01 95 1014.3
20200218232006 28 142 0.0 2.0 0.00 0.01 0.01 95 1014.3
20200218231004 28 258 1.0 2.0 0.00 0.01 0.01 94 1014.4
20200218230004 28 238 0.0 2.0 0.00 0.01 0.01 94 1014.4
20200218224004 27 166 1.0 2.0 0.00 0.01 0.01 94 1014.7
20200218223005 27 256 1.0 2.0 0.00 0.01 0.01 93 1014.8
20200218222004 27 257 1.0 2.0 0.00 0.01 0.01 93 1014.8
20200218220006 28 62 1.0 3.0 0.00 0.01 0.01 91 1015.0
20200218215005 28 339 1.0 8.0 0.00 0.01 0.01 91 1015.1
20200218214004 28 185 0.0 5.0 0.00 0.01 0.01 91 1015.2
20200218213005 27 85 1.0 3.0 0.00 0.01 0.01 90 1015.4
20200218212005 27 52 1.0 3.0 0.00 0.01 0.01 89 1015.6
20200218211005 27 101 2.0 5.0 0.00 0.01 0.01 89 1015.7
20200218210005 27 16 1.0 5.0 0.00 0.01 0.01 89 1015.8
20200218205005 27 170 2.0 6.0 0.00 0.01 0.01 89 1015.7
20200218204005 27 165 2.0 6.0 0.00 0.01 0.01 89 1015.8
20200218203005 26 71 2.0 5.0 0.00 0.01 0.01 89 1016.2